When you browse on this site, cookies collect data to enhance your experience and personalize the content and advertising you see.
Visit our Privacy Policy to learn more. By continuing to use the site, you agree to this use of cookies and data.
  • In United Kingdom
  • List of Countries
  • For 7 days
  • Water Temperature
  • Satellite Maps
  • Weather Map
  • Weather Widgets
  • user-avatar
    Login

    Hourly Weather Nakhchivan

    Today, 24 July, Wednesday

    Time Temperature Precipitation Wind Pressure Humidity
    00:00 +30°C° 0 mm 2 mps 684 mmHg 37%
    01:00 +30°C° 0 mm 2 mps 683 mmHg 39%
    02:00 +29°C° 0 mm 1 mps 683 mmHg 41%
    03:00 +29°C° 0 mm 1 mps 683 mmHg 45%
    04:00 +29°C° 0 mm 1 mps 683 mmHg 46%
    05:00 +29°C° 0 mm 1 mps 683 mmHg 48%
    06:00 +29°C° 0 mm 2 mps 683 mmHg 49%
    07:00 +30°C° 0 mm 2 mps 683 mmHg 45%
    08:00 +31°C° 0 mm 2 mps 683 mmHg 41%
    09:00 +34°C° 0 mm 2 mps 683 mmHg 36%
    10:00 +35°C° 0 mm 2 mps 683 mmHg 32%
    11:00 +37°C° 0 mm 2 mps 684 mmHg 27%
    12:00 +39°C° 0 mm 2 mps 684 mmHg 23%
    13:00 +42°C° 0 mm 3 mps 684 mmHg 18%
    14:00 +43°C° 0 mm 4 mps 684 mmHg 12%
    15:00 +46°C° 0 mm 5 mps 684 mmHg 7%
    16:00 +45°C° 0 mm 6 mps 684 mmHg 7%
    17:00 +44°C° 0 mm 8 mps 684 mmHg 7%
    18:00 +43°C° 0 mm 9 mps 684 mmHg 6%
    19:00 +39°C° 0 mm 6 mps 684 mmHg 9%
    20:00 +36°C° 0 mm 4 mps 684 mmHg 11%
    21:00 +32°C° 0 mm 1 mps 684 mmHg 14%
    22:00 +32°C° 0 mm 1 mps 684 mmHg 16%
    23:00 +31°C° 0 mm 1 mps 684 mmHg 18%

    Tomorrow, 25 July, Thursday

    Time Temperature Precipitation Wind Pressure Humidity
    00:00 +30°C° 0 mm 2 mps 684 mmHg 21%
    01:00 +29°C° 0 mm 1 mps 684 mmHg 23%
    02:00 +28°C° 0 mm 1 mps 684 mmHg 26%
    03:00 +27°C° 0 mm 1 mps 684 mmHg 28%
    04:00 +28°C° 0 mm 1 mps 684 mmHg 28%
    05:00 +28°C° 0 mm 1 mps 684 mmHg 28%
    06:00 +26°C° 0 mm 0 mps 685 mmHg 28%
    07:00 +30°C° 0 mm 1 mps 685 mmHg 26%
    08:00 +32°C° 0 mm 1 mps 685 mmHg 23%
    09:00 +33°C° 0 mm 1 mps 685 mmHg 21%
    10:00 +35°C° 0 mm 1 mps 685 mmHg 18%
    11:00 +36°C° 0 mm 1 mps 685 mmHg 15%
    12:00 +37°C° 0 mm 1 mps 685 mmHg 13%
    13:00 +39°C° 0 mm 2 mps 684 mmHg 12%
    14:00 +40°C° 0 mm 2 mps 684 mmHg 10%
    15:00 +42°C° 0 mm 3 mps 684 mmHg 9%
    16:00 +42°C° 0 mm 3 mps 684 mmHg 9%
    17:00 +42°C° 0 mm 3 mps 684 mmHg 9%
    18:00 +42°C° 0 mm 4 mps 684 mmHg 9%
    19:00 +38°C° 0 mm 3 mps 684 mmHg 12%
    20:00 +36°C° 0 mm 3 mps 684 mmHg 14%
    21:00 +34°C° 0 mm 2 mps 684 mmHg 16%
    22:00 +32°C° 0 mm 2 mps 684 mmHg 21%
    23:00 +31°C° 0 mm 2 mps 684 mmHg 26%

    Day after tomorrow, 26 July, Friday

    Time Temperature Precipitation Wind Pressure Humidity
    00:00 +30°C° 0 mm 2 mps 684 mmHg 30%
    01:00 +29°C° 0 mm 3 mps 684 mmHg 34%
    02:00 +28°C° 0 mm 3 mps 684 mmHg 38%
    03:00 +27°C° 0 mm 4 mps 684 mmHg 42%
    04:00 +27°C° 0 mm 4 mps 684 mmHg 43%
    05:00 +26°C° 0 mm 4 mps 684 mmHg 45%
    06:00 +26°C° 0 mm 4 mps 684 mmHg 46%
    07:00 +28°C° 0 mm 4 mps 685 mmHg 42%
    08:00 +29°C° 0 mm 4 mps 685 mmHg 38%
    09:00 +30°C° 0 mm 4 mps 685 mmHg 34%
    10:00 +33°C° 0 mm 4 mps 685 mmHg 32%
    11:00 +34°C° 0 mm 3 mps 684 mmHg 29%
    12:00 +35°C° 0 mm 2 mps 684 mmHg 26%
    13:00 +36°C° 0 mm 2 mps 684 mmHg 24%
    14:00 +37°C° 0 mm 2 mps 684 mmHg 21%
    15:00 +38°C° 0 mm 2 mps 683 mmHg 19%
    16:00 +38°C° 0 mm 2 mps 683 mmHg 19%
    17:00 +38°C° 0 mm 3 mps 683 mmHg 19%
    18:00 +38°C° 0 mm 3 mps 683 mmHg 20%
    19:00 +36°C° 0 mm 3 mps 684 mmHg 25%
    20:00 +34°C° 0 mm 3 mps 684 mmHg 30%
    21:00 +31°C° 0 mm 3 mps 684 mmHg 34%
    22:00 +30°C° 0 mm 3 mps 684 mmHg 38%
    23:00 +29°C° 0 mm 2 mps 684 mmHg 41%

    27 July, Saturday

    Time Temperature Precipitation Wind Pressure Humidity
    00:00 +28°C° 0 mm 2 mps 684 mmHg 44%
    01:00 +27°C° 0 mm 2 mps 684 mmHg 46%
    02:00 +26°C° 0 mm 2 mps 684 mmHg 48%
    03:00 +26°C° 0 mm 1 mps 684 mmHg 50%
    04:00 +26°C° 0 mm 1 mps 684 mmHg 50%
    05:00 +26°C° 0 mm 1 mps 684 mmHg 50%
    06:00 +26°C° 0 mm 1 mps 684 mmHg 50%
    07:00 +27°C° 0 mm 1 mps 684 mmHg 46%
    08:00 +28°C° 0 mm 1 mps 684 mmHg 43%
    09:00 +30°C° 0 mm 2 mps 684 mmHg 39%
    10:00 +31°C° 0 mm 2 mps 684 mmHg 35%
    11:00 +34°C° 0 mm 2 mps 683 mmHg 32%
    12:00 +35°C° 0 mm 2 mps 683 mmHg 28%
    13:00 +36°C° 0 mm 3 mps 683 mmHg 26%
    14:00 +37°C° 0 mm 4 mps 682 mmHg 23%
    15:00 +38°C° 0 mm 4 mps 682 mmHg 21%
    16:00 +38°C° 0 mm 4 mps 682 mmHg 22%
    17:00 +37°C° 0 mm 4 mps 682 mmHg 23%
    18:00 +37°C° 0 mm 4 mps 681 mmHg 24%
    19:00 +35°C° 0 mm 4 mps 681 mmHg 27%
    20:00 +33°C° 0 mm 4 mps 682 mmHg 30%
    21:00 +30°C° 0 mm 3 mps 682 mmHg 34%
    22:00 +29°C° 0 mm 3 mps 682 mmHg 35%
    23:00 +28°C° 0 mm 2 mps 681 mmHg 37%

    28 July, Sunday

    Time Temperature Precipitation Wind Pressure Humidity
    00:00 +27°C° 0 mm 2 mps 681 mmHg 39%
    01:00 +27°C° 0 mm 2 mps 681 mmHg 40%
    02:00 +26°C° 0 mm 2 mps 681 mmHg 42%
    03:00 +25°C° 0 mm 1 mps 681 mmHg 43%
    04:00 +25°C° 0 mm 1 mps 681 mmHg 43%
    05:00 +25°C° 0 mm 1 mps 681 mmHg 43%
    06:00 +25°C° 0 mm 1 mps 681 mmHg 43%
    07:00 +27°C° 0 mm 1 mps 682 mmHg 41%
    08:00 +28°C° 0 mm 1 mps 682 mmHg 39%
    09:00 +29°C° 0 mm 1 mps 682 mmHg 36%
    10:00 +31°C° 0 mm 1 mps 682 mmHg 33%
    11:00 +34°C° 0 mm 2 mps 682 mmHg 29%
    12:00 +35°C° 0 mm 2 mps 682 mmHg 26%
    13:00 +36°C° 0 mm 2 mps 681 mmHg 24%
    14:00 +38°C° 0 mm 3 mps 681 mmHg 21%
    15:00 +39°C° 0 mm 3 mps 681 mmHg 19%
    16:00 +39°C° 0 mm 3 mps 681 mmHg 19%
    17:00 +38°C° 0 mm 4 mps 681 mmHg 19%
    18:00 +38°C° 0 mm 4 mps 681 mmHg 20%
    19:00 +36°C° 0 mm 4 mps 681 mmHg 24%
    20:00 +34°C° 0 mm 4 mps 681 mmHg 28%
    21:00 +31°C° 0 mm 3 mps 681 mmHg 33%
    22:00 +30°C° 0 mm 3 mps 681 mmHg 34%
    23:00 +29°C° 0 mm 2 mps 681 mmHg 36%

    29 July, Monday

    Time Temperature Precipitation Wind Pressure Humidity
    00:00 +28°C° 0 mm 2 mps 681 mmHg 37%
    01:00 +27°C° 0 mm 2 mps 681 mmHg 40%
    02:00 +27°C° 0 mm 1 mps 681 mmHg 43%
    03:00 +26°C° 0 mm 1 mps 681 mmHg 45%
    04:00 +26°C° 0 mm 1 mps 681 mmHg 45%
    05:00 +26°C° 0 mm 1 mps 682 mmHg 45%
    06:00 +26°C° 0 mm 1 mps 682 mmHg 45%
    07:00 +27°C° 0 mm 1 mps 682 mmHg 41%
    08:00 +29°C° 0 mm 2 mps 682 mmHg 37%
    09:00 +30°C° 0 mm 2 mps 682 mmHg 34%
    10:00 +32°C° 0 mm 2 mps 682 mmHg 30%
    11:00 +34°C° 0 mm 2 mps 682 mmHg 27%
    12:00 +36°C° 0 mm 2 mps 682 mmHg 24%
    13:00 +37°C° 0 mm 2 mps 682 mmHg 22%
    14:00 +38°C° 0 mm 3 mps 682 mmHg 19%
    15:00 +39°C° 0 mm 3 mps 682 mmHg 17%
    16:00 +39°C° 0 mm 5 mps 682 mmHg 21%
    17:00 +36°C° 0 mm 7 mps 682 mmHg 24%
    18:00 +34°C° 0 mm 9 mps 682 mmHg 28%
    19:00 +33°C° 0.2 mm 7 mps 682 mmHg 31%
    20:00 +32°C° 0.2 mm 5 mps 683 mmHg 34%
    21:00 +29°C° 0.2 mm 4 mps 684 mmHg 37%
    22:00 +29°C° 0 mm 3 mps 684 mmHg 39%
    23:00 +28°C° 0 mm 2 mps 684 mmHg 41%
    Show more